Regional Weather Roundup
Issued by NWS

Home | Current Version | Previous Version | Graphics & Text | Print | Product List | Glossary Off
Versions: 1 2 3 4 5 6 7 8 9 10 11 12 13 14 15 16 17 18 19 20 21 22 23 24 25 26 27 28 29 30 31 32 33 34 35 36 37 38 39 40 41 42 43 44 45 46 47 48 49 50

000
ASUS43 KDMX 290107
RWRIA

WEATHER ROUNDUP FOR IOWA
NATIONAL WEATHER SERVICE DES MOINES IA
700 PM CST WED JAN 28 2015

NOTE: "FAIR" INDICATES FEW OR NO CLOUDS BELOW 12,000 FEET WITH NO
SIGNIFICANT WEATHER AND/OR OBSTRUCTIONS TO VISIBILITY.

* - THESE STATIONS ARE NOT NWS STATIONS...THUS NOT UNDER NWS
QUALITY CONTROL.  THEY ALSO DO NOT REPORT WEATHER SUCH
AS PRECIPITATION OR FOG.

IAZ001>003-012>014-020>022-031>034-043>046-290200-
   NORTHWEST IOWA

CITY           SKY/WX    TMP DP  RH WIND       PRES   REMARKS
CARROLL *      CLEAR     36  34  93 W6        29.70R WCI  31
CHEROKEE *     CLEAR     34  34 100 N3        29.74R FOG
DENISON *      CLEAR     39  34  81 CALM      29.70R
LE MARS *      MOCLDY    36  34  93 N5        29.75R WCI  32
ORANGE CITY *  CLEAR     37  34  87 NE7       29.76R FOG     WCI  32
SHELDON *      CLOUDY    34  34 100 N7        29.75R FOG     WCI  28
SIOUX CITY     CLEAR     43  36  76 NW10      29.73R
SPENCER        MOCLDY    34  31  88 N6        29.75R FOG     WCI  29
STORM LAKE *   CLEAR     34  34 100 N7        29.72R FOG     WCI  28
$$

IAZ055>058-069>071-079>083-090>094-290200-
   SOUTHWEST IOWA

CITY           SKY/WX    TMP DP  RH WIND       PRES   REMARKS
ATLANTIC *     CLEAR     43  36  75 NW8       29.70R
AUDUBON *      CLEAR     34  30  86 CALM      29.72R
CLARINDA *     CLEAR     54  37  54 W8        29.70R
COUNCIL BLFS * CLEAR     50  36  57 NW7       29.70R
CRESTON *      CLEAR     45  37  76 E7        29.67F
HARLAN  *      CLEAR     39  36  87 NW8       29.74R WCI  34
LAMONI         CLOUDY    52  39  61 S7        29.66F
RED OAK *      CLEAR     45  34  65 W6        29.70R
SHENANDOAH *   CLEAR     50  36  57 W6        29.71R
$$

IAZ047>049-059>061-072>074-084-290200-
   CENTRAL IOWA

CITY           SKY/WX    TMP DP  RH WIND       PRES   REMARKS
AMES           CLOUDY    38  33  82 SE6       29.70F WCI  33
ANKENY *       CLEAR     41  36  81 E6        29.70F
CHARITON *     MOCLDY    45  36  70 SE6       29.68S
DES MOINES     CLOUDY    47  35  63 E9        29.69F
GRINNELL*      CLOUDY    37  34  87 E7        29.73F WCI  32
KNOXVILLE *    CLEAR     43  36  75 NE6       29.69F
MARSHALLTOWN   CLOUDY    36  32  85 E13       29.72F WCI  27
PELLA *        CLOUDY    41  36  81 E3        29.73S
PERRY *          N/A     37  34  87 E7        29.68F WCI  32
$$

IAZ004>006-015-016-023>025-035-036-290200-
   NORTH CENTRAL IOWA

CITY           SKY/WX    TMP DP  RH WIND       PRES   REMARKS
ALGONA *       CLEAR     34  34 100 NE5       29.73F FOG     WCI  30
CLARION *      CLEAR     36  36 100 SE10      29.71S WCI  28
ESTHERVILLE    CLOUDY    32  31  96 N7        29.74F FOG     WCI  26
FORT DODGE *   PTCLDY    34  30  86 E3        29.72R
MASON CITY     MOCLDY    33  31  92 SE8       29.75R WCI  26
FOREST CITY *  CLEAR     34  32  93 E3        29.74R
IOWA FALLS *     N/A     34  32  93 E7        29.73F WCI  28
$$

IAZ007>011-017>019-026>030-037>042-050>054-066-290200-
   NORTHEAST IOWA

CITY           SKY/WX    TMP DP  RH WIND       PRES   REMARKS
CEDAR RAPIDS   CLOUDY    36  32  85 SE9       29.77R WCI  29
CHARLES CITY * CLOUDY    34  32  93 SE14      29.75F WCI  24
CLINTON *      CLOUDY    34  28  80 SE16G22   29.84F WCI  23
DECORAH *      CLOUDY    32  28  86 S14G20    29.78F WCI  22
DUBUQUE        CLOUDY    32  27  81 S9        29.84R WCI  24
MONTICELLO *   CLEAR     34  32  93 SE9       29.82R WCI  26
OELWEIN *      PTCLDY    34  30  86 SE14      29.78F WCI  24
WATERLOO       CLOUDY    33  31  92 E9        29.76F WCI  25
$$

IAZ064-065-067-068-078-290200-
   EAST CENTRAL IOWA

CITY           SKY/WX    TMP DP  RH WIND       PRES   REMARKS
DAVENPORT      CLOUDY    36  29  75 SE18      29.82F WCI  26
IOWA CITY      CLOUDY    37  32  82 SE13      29.79S WCI  29
MT. PLEASANT * CLOUDY    39  32  75 SE14      29.76F WCI  31
MUSCATINE *    CLEAR     39  32  75 SE12G18   29.80F WCI  32
QUAD CITIES    MOCLDY    36  30  79 SE10      29.82F WCI  28
$$

IAZ062-063-075>077-085>089-095>099-290200-
   SOUTHEAST IOWA

CITY           SKY/WX    TMP DP  RH WIND       PRES   REMARKS
BURLINGTON     CLOUDY    40  32  73 SE14      29.78F WCI  32
FAIRFIELD *    MOCLDY    41  32  70 SE14      29.74S
FORT MADISON * CLEAR     39  34  81 S16G25    29.78F WCI  30
KEOKUK *       CLEAR     45  34  65 SE14G20   29.76F
OSKALOOSA *      N/A     39  34  81 SE9       29.72S WCI  33
CENTERVILLE *    N/A     45  37  76 SE7       29.70F
OTTUMWA        CLOUDY    41  34  76 SE10      29.71F
WASHINGTON *   CLEAR     39  37  93 SE14G22   29.76S WCI  31
$$

ABBREVIATIONS USED IN REMARKS
   TC - TEMPERATURES IN CELSIUS
  WCI - WIND CHILL INDEX
   HX - HEAT INDEX
  VSB - VISIBILITY
$$




USA.gov is the U.S. government's official web portal to all federal, state and local government web resources and services.